Location: Newark
(15.4608°S, 41.1635°W)
Time: 03:05:17
(UTC+00:00)

Explorer 11/Cluster Stage 4 - Visible Passes

Search period start: 04 August 2021 00:00
Search period end: 14 August 2021 00:00
Orbit: 467 x 1257 km, 28.8° (Epoch: 03 August)

Date Brightness Start Highest point End Pass type
(mag) Time Alt. Az. Time Alt. Az. Time Alt. Az.
04 Aug 7.4 21:58:40 10° WSW 22:02:25 24° SSW 22:03:18 22° S visible
05 Aug 7.7 21:47:43 10° WSW 21:51:29 22° SSW 21:53:04 18° SSE visible
06 Aug 7.9 21:36:47 10° WSW 21:40:32 21° SSW 21:42:50 14° SSE visible
07 Aug 8.1 21:25:48 10° WSW 21:29:35 20° SSW 21:32:35 11° SSE visible
08 Aug 8.2 21:14:47 10° WSW 21:18:40 20° SSW 21:22:02 10° SSE visible
09 Aug 8.2 21:03:44 10° WSW 21:07:44 19° SSW 21:11:12 10° SE visible
10 Aug 8.3 20:52:38 10° SW 20:56:47 20° S 21:00:24 10° SE visible
10 Aug 8.7 22:43:12 10° SW 22:43:56 12° SSW 22:43:56 12° SSW visible
11 Aug 8.4 22:31:52 10° SW 22:33:42 16° SSW 22:33:42 16° SSW visible
12 Aug 8.0 22:20:30 10° SW 22:23:30 21° S 22:23:30 21° S visible
13 Aug 7.6 22:09:08 10° SW 22:13:20 26° S 22:13:20 26° S visible
